Contact Us:
Email: info@sawbill.com
Phone: (218)663-7150
Fax: (218)663-7980
Mail: 4620 Sawbill Trail
Box 2129
Tofte, MN 55615


Powered by
Movable Type 3.15
 
Sawbill Weather History
Check out the 7 Day Weather Forecast for the Superior National Forest.
Date High
Temperature
Low
Temperature
Barometric
Pressure
Relative
Humidity 7AM
9 AM
Temperature
Moisture Snow
5/24/16 70 51 30.04 88% 52 .09"
5/23/16 78 49 30.00 81% 57 .47"
5/22/16 78 49 29.98 48% 51 0
5/21/16 77 45 30.14 61% 49 0
5/20/16 70 43 30.20 47% 55 0
5/19/16 72 48 30.12 58% 52 0
5/18/16 67 37 30.16 59% 38 0
5/17/16 58 35 30.24 53% 41 0
5/16/16 52 34 30.24 67% 35 0
5/15/16 51 32 30.04 80% 38 .19"
5/14/16 36 27 30.00 59% 27 .02" Trace
5/13/16 42 26 30.02 72% 27 .06" Trace
5/12/16 57 38 29.96 56% 38 0
5/11/16 57 45 29.98 87% 47 .3"
5/10/16 62 42 30.10 39% 50 0
5/9/16 60 37 30.10 40% 46 0
5/8/16 66 36 30.08 56% 45 0
5/7/16 56 27 30.08 92% 36 0
5/6/16 84 41 30.00 50% 43 .02"
5/5/16 69 37 29.94 45% 57 0
5/4/16 54 33 30.04 65% 37 0
5/3/16 61 31 30.00 55% 37 .04"
5/2/16 64 29 30.08 45% 50 0
5/1/16 51 32 30.24 43% 36 0
4/30/16 52 22 30.12 93% 22 0
4/29/16 51 32 30.26 58% 38 0
4/28/16 54 32 30.06 82% 34 0
4/27/16 51 27 30.12 92% 34 0
4/26/16 54 20 30.08 92% 20 0
4/25/16 44 30 30.06 92% 32 .45"
4/24/16 40 33 29.96 90% 33 .09"
4/23/16 48 36 30.00 89% 36 .01"
4/22/16 47 33 30.18 33% 36 0
4/21/16 58 29 30.20 48% 30 .16"
4/20/16 60 34 30.02 73% 39 0
4/19/16 61 26 30.10 76% 42 0
4/18/16 44 31 30.36 87% 36 0
4/17/16 70 37 30.36 73% 37 .4"
4/16/16 68 39 30.28 67% 40 0
4/15/16 60 38 30.20 67% 53 0
4/14/16 54 36 30.12 73% 39 0
4/13/16 43 30 30.14 59% 35 0
4/12/16 36 22 30.22 78% 31 0
4/11/16 30 21 30.20 54% 22 .08" .5"
4/10/16 36 24 29.84 73% 24 .08" 1"
4/9/16 27 -5 29.86 82% 27 .02" Trace
4/8/16 26 -7 30.14 51% -5 .06" .5"
4/7/16 36 18 29.96 70% 19 .28" 3.5"
4/6/16 36 25 29.90 66% 26 0
4/5/16 35 9 29.86 82% 30 .6" 6"
4/4/16 28 8 30.22 51% 9 0
4/3/16 25 2 30.18 57% 11 .1" 1"
4/2/16 21 14 29.88 63% 16 .14" 1.5"
4/1/16 28 16 29.84 56% 16 .09" .5"
3/31/16 40 24 29.82 62% 24 Trace Trace
3/30/16 42 30 29.76 85% 33 .07"
3/29/16 52 23 29.90 78% 39 .2"
3/28/16 40 22 30.16 58% 23 0
3/27/16 39 23 30.10 71% 29 0
3/26/16 35 27 30.06 66% 29 Trace Trace
3/25/16 40 22 30.10 72% 27 .08" 1"
3/24/16 36 14 30.00 78% 22 0
3/23/16 32 7 30.08 56% 14 0
3/22/16 34 7 30.12 58% 7 0
3/21/16 34 10 29.96 73% 24 0
3/20/16 31 10 30.10 61% 10 0
3/19/16 32 9 30.20 78% 20 0
3/18/16 29 4 30.26 62% 9 0
3/17/16 27 14 30.14 68% 14 Trace Trace
3/16/16 34 23 29.82 83% 23 1.07" 10"
3/15/16 43 33 29.80 94% 33 .39"
3/14/16 46 34 29.80 95% 39 .02"
3/13/16 47 36 29.82 86% 37 .11"
3/12/16 54 34 30.00 48% 40 0
3/11/16 46 32 30.10 49% 41 0
3/10/16 36 20 30.08 92% 33 0
3/9/16 35 30 30.08 77% 31 Trace Trace
3/8/16 47 31 29.92 89% 33 .06"
3/7/16 49 22 29.91 70% 36 0
3/6/16 48 28 29.90 78% 31 0
3/5/16 33 17 29.90 79% 28 0
3/4/16 26 -2 30.14 68% 17 .17" 3"
3/3/16 26 -3 30.08 45% -2 0
3/2/16 21 -10 30.10 44% 8 0
3/1/16 14 -11 30.04 35% -10 0
2/29/16 9 -5 30.08 58% -2 0
2/28/16 24 0 29.98 58% 0 .20" 2.5"
2/27/16 33 15 29.78 72% 32 0
2/25/16 24 11 30.10 71% 15 Trace Trace
2/24/16 30 11 30.12 67% 11 0
2/23/16 32 23 30.08 85% 28 .18" 2"
2/22/16 24 -1 30.04 85% 23 Trace Trace
2/21/16 18 -9 30.14 59% -1 Trace Trace
2/20/16 34 18 30.18 64% 18 .2" 2"
2/19/16 34 32 29.80 98% 33 .37" 1"
2/18/16 32 -15 29.60 98% 32 .2" 1"
2/17/16 25 -15 29.80 90% 21 0
2/16/16 19 -16 30.16 57% -15 0
2/15/16 25 15 29.92 71% 17 Trace Trace
2/14/16 15 -10 29.86 75% 15 .2" 4
2/13/16 5 -17 30.12 56% -10 0
2/12/16 -4 -17 30.36 49% -17 0
2/11/16 9 -12 30.14 58% -8 Trace Trace
2/10/16 3 -15 30.16 63% -11 0
2/9/16 4 -15 30.04 63% -15 0
2/8/16 9 -2 30.02 63% -2 .13" 1.5"
2/7/16 33 6 29.84 63% 6 .16" 1.5"
2/6/16 30 21 29.74 98% 30 .41" 4"
2/5/16 21 -1 30.04 74% 21 0
2/4/16 19 -3 30.16 64% -1 .05" 1.5"
2/3/16 15 -6 30.06 49% 1 Trace Trace
2/2/16 23 8 29.90 67% 8 .15" 1.5"
2/1/16 23 11 30.14 64% 13 Trace Trace
1/31/16 35 11 29.96 61% 11 0
1/30/16 36 27 29.74 79% 27 0
1/29/16 28 7 29.68 55% 28 .3" 3.5"
1/28/16 15 -6 29.90 55% 7 0
1/27/16 25 14 29.84 67% 14 .42" 4.5"
1/26/16 22 14 29.88 76% 16 Trace Trace
1/25/16 30 18 29.80 76% 18 .2" 1.5"
1/24/16 26 20 29.94 87% 26 Trace
1/23/16 21 16 29.96 76% 20 .1" 1"
1/22/16 16 7 30.06 79% 16 0
1/21/16 16 7 30.34 67% 7 Trace Trace
1/20/16 14 -10 30.20 70% 11 Trace Trace
1/19/16 8 -13 30.12 60% -10 0
1/18/16 -3 -17 30.26 62% -11 0
1/17/16 -5 -18 30.10 70% -17 0
1/16/16 -1 -18 30.02 70% -18 0
1/15/16 20 0 29.80 70% 0 Trace Trace
1/14/16 16 -2 29.80 77% 13 .23" 3.5"
1/13/16 -1 -14 29.80 64% -2 Trace Trace
1/12/16 -3 -12 29.88 64% -5 0
1/11/16 0 -13 29.96 64% -13 Trace Trace
1/10/16 0 -15 29.92 64% -12 0
1/9/16 8 -14 30.00 64% -13 Trace Trace
1/8/16 32 8 29.82 84% 8 .05" .5"
1/7/16 31 26 29.92 89% 30 .25" 2.5"
1/6/16 26 23 30.06 86% 26 .14" 1.5"
1/5/16 26 16 30.10 72% 23 0
 


Home I Trip Planning I Rentals and Outfitting I Reservations I Campgrounds I Sawbill Store I Sawbill News I Contact

© 1997 - 2016, Sawbill Canoe Outfitters, Inc. I Privacy Policy